Probability
0 0 0 0 0 0 0 0 0 0 0 0 0 0 0 0 0 0 0 0 0 0 35 100 100 100 94 74 65 52 42 77 84 74 55 74 100 100 100 100 100 100 100 100 100 100 100 100 100
0 0 0 0 0 0 0 0 0 0 0 0 0 0 0 0 0 0 0 0 0 6 81 100 100 100 97 58 52 48 39 68 74 45 48 81 97 94 97 100 100 100 100 100 100 100 100 100 100
0 0 0 0 0 0 0 0 0 0 0 0 0 0 0 0 0 0 0 0 0 19 90 97 100 100 100 87 71 65 84 74 84 74 55 45 32 42 68 94 100 100 100 100 100 100 100 100 100
0 0 0 0 0 0 0 0 0 0 0 0 0 0 0 0 0 0 0 0 0 6 81 100 100 100 100 100 100 97 100 81 90 90 90 90 90 61 61 100 100 100 100 100 100 100 100 100 100
0 0 0 0 0 0 0 0 0 0 0 0 0 0 0 0 0 0 0 3 13 26 65 97 100 100 100 100 100 100 100 100 100 100 100 84 97 100 100 100 100 100 100 100 100 100 100 100 100
0 0 0 0 0 0 0 0 0 0 0 0 0 0 0 0 0 0 0 0 0 0 0 0 16 87 100 100 100 100 100 100 100 100 100 100 100 97 100 100 100 100 100 100 100 100 100 97 100
0 0 0 0 0 0 0 0 0 0 0 0 0 0 0 0 0 0 0 0 0 0 0 0 0 0 13 90 100 100 100 100 100 100 100 100 100 100 100 100 100 100 100 100 100 100 100 100 100
0 0 0 0 0 0 0 0 0 0 0 0 0 0 0 0 0 0 0 0 0 0 0 0 0 0 0 0 58 84 100 100 100 100 94 97 94 84 90 100 100 100 100 100 100 100 100 100 100
0 0 0 0 0 0 0 0 0 0 0 0 0 0 0 0 0 0 0 0 0 0 0 0 0 0 0 0 0 0 10 29 65 77 58 23 3 6 6 29 81 97 100 100 100 100 100 100 97
0 0 0 0 0 0 0 0 0 0 0 0 0 0 0 0 0 0 0 0 0 0 0 0 0 0 0 0 0 0 0 0 0 0 0 0 0 0 0 0 3 77 100 100 100 100 100 94 26
0 0 0 0 0 0 0 0 0 0 0 0 0 0 0 0 0 0 0 0 0 0 0 0 0 0 0 0 0 0 0 0 0 0 0 0 0 0 0 0 0 0 0 0 3 42 45 13 0
0 0 0 0 0 0 0 0 0 0 0 0 0 0 0 0 0 0 0 0 0 0 0 0 0 0 0 0 0 0 0 0 0 0 0 0 0 0 0 0 0 0 0 0 0 0 0 0 0
0 0 0 0 0 0 0 0 0 0 0 0 0 0 0 0 0 0 0 0 0 0 0 0 0 0 0 0 0 0 0 0 0 0 0 0 0 0 0 0 0 0 0 0 0 0 0 0 0
0 0 0 0 0 0 0 0 0 0 0 0 0 0 0 0 0 0 0 0 0 0 0 0 0 0 0 0 0 0 0 0 0 0 0 0 0 0 0 0 0 0 0 0 0 0 0 0 0
0 0 0 0 0 0 0 0 0 0 0 0 0 0 0 0 0 0 0 0 0 0 0 0 0 0 0 0 0 0 0 0 0 0 0 0 0 0 0 0 0 0 0 0 0 0 0 0 0
0 0 0 0 0 0 0 0 0 0 0 0 0 0 0 0 0 0 0 0 0 0 0 0 0 0 0 0 0 0 0 0 0 0 0 0 0 0 0 0 0 0 0 0 0 0 0 0 0
0 0 0 0 0 0 0 0 0 0 0 0 0 0 0 0 0 0 0 0 0 0 0 0 0 0 0 0 0 0 0 0 0 0 0 0 0 0 0 0 0 0 0 0 0 0 0 0 0
0 0 0 0 0 0 0 0 0 0 0 0 0 0 0 0 0 0 0 0 0 0 0 0 0 0 0 0 0 0 0 0 0 0 0 0 0 0 0 0 0 0 0 0 0 0 0 0 0
0 0 0 0 0 0 0 0 0 0 0 0 0 0 0 0 0 0 0 0 0 0 0 0 0 0 0 0 0 0 0 0 0 0 0 0 0 0 0 0 0 0 0 0 0 0 0 0 0
0 0 0 0 0 0 0 0 0 0 0 0 0 0 0 0 0 0 0 0 0 0 0 0 0 0 0 0 0 0 0 0 0 0 0 0 0 0 0 0 0 0 0 0 0 0 0 0 0
0 0 0 0 0 0 0 0 0 0 0 0 0 0 0 0 0 0 0 0 0 0 0 0 0 0 0 0 0 0 0 0 0 0 0 0 0 0 0 0 0 0 0 0 0 0 0 0 0
0 0 0 0 0 0 0 0 0 0 0 0 0 0 0 0 0 0 0 0 0 0 0 0 0 0 0 0 0 0 0 0 0 0 0 0 0 0 0 0 0 0 0 0 0 0 0 0 0
0 0 0 0 0 0 0 0 0 0 0 0 0 0 0 0 0 0 0 0 0 0 0 0 0 0 0 0 0 0 0 0 0 0 0 0 0 0 0 0 0 0 0 0 0 0 0 0 0
0 0 0 0 0 0 0 0 0 0 0 0 0 0 0 0 0 0 0 0 0 0 0 0 0 0 0 0 0 0 0 0 0 0 0 0 0 0 0 0 0 0 0 0 0 0 0 0 0
0 0 0 0 0 0 0 0 0 0 0 0 0 0 0 0 0 0 0 0 0 0 0 0 0 0 0 0 0 0 0 0 0 0 0 0 0 0 0 0 0 0 0 0 0 0 0 0 0
0 0 0 0 0 0 0 0 0 0 0 0 0 0 0 0 0 0 0 0 0 0 0 0 0 0 0 0 0 0 0 0 0 0 0 0 0 0 0 0 0 0 0 0 0 0 0 0 0
0 0 0 0 0 0 0 0 0 0 0 0 0 0 0 0 0 0 0 0 0 0 0 0 0 0 0 0 0 0 0 0 0 0 0 0 0 0 0 0 0 0 0 0 0 0 0 0 0
0 0 0 0 0 0 0 0 0 0 0 0 0 0 0 0 0 0 0 0 0 0 0 0 0 0 0 0 0 0 0 0 0 0 0 0 0 0 0 0 0 0 0 0 0 0 0 0 0
0 0 0 0 0 0 0 0 0 0 0 0 0 0 0 0 0 0 0 0 0 0 0 0 0 0 0 0 0 0 0 0 0 0 0 0 0 0 0 0 0 0 0 0 0 0 0 0 0
0 0 0 0 0 0 0 0 0 0 0 0 0 0 0 0 0 0 0 0 0 0 0 0 0 0 0 0 0 0 0 0 0 0 0 0 0 0 0 0 0 0 0 0 0 0 0 0 0
Height
5840 5839 5840 5842 5843 5843 5842 5842 5843 5843 5844 5844 5845 5845 5846 5847 5849 5852 5850 5849 5849 5849 5849 5849 5848 5848 5848 5847 5847 5847 5847 5847 5846 5845 5845 5845 5846 5846 5846 5846 5847 5847 5848 5849 5849 5850 5850 5851 5852
5838 5839 5841 5842 5841 5841 5842 5842 5842 5842 5843 5844 5844 5845 5845 5844 5845 5846 5846 5846 5845 5845 5846 5846 5845 5845 5844 5844 5844 5843 5843 5842 5841 5841 5840 5840 5840 5840 5841 5841 5841 5842 5843 5843 5844 5845 5846 5847 5847
5838 5839 5841 5841 5840 5842 5842 5842 5842 5842 5842 5842 5843 5844 5843 5842 5842 5842 5843 5842 5842 5842 5842 5842 5841 5840 5840 5839 5838 5838 5838 5837 5836 5836 5835 5834 5835 5835 5835 5835 5836 5836 5836 5837 5838 5839 5840 5841 5842
5839 5841 5841 5840 5840 5841 5841 5841 5841 5841 5841 5841 5842 5843 5843 5843 5843 5842 5842 5841 5840 5839 5838 5838 5837 5836 5835 5835 5833 5833 5832 5831 5830 5830 5829 5828 5829 5829 5829 5829 5830 5830 5830 5830 5831 5832 5833 5834 5835
5841 5842 5841 5840 5840 5841 5840 5841 5841 5841 5840 5840 5841 5842 5842 5841 5841 5840 5839 5838 5837 5836 5835 5834 5833 5832 5831 5830 5829 5828 5826 5825 5824 5823 5822 5821 5822 5822 5822 5822 5823 5823 5823 5823 5824 5825 5826 5827 5828
5842 5842 5841 5840 5841 5841 5841 5841 5841 5841 5840 5839 5839 5839 5838 5838 5838 5837 5836 5834 5833 5831 5830 5828 5826 5825 5824 5823 5821 5820 5819 5818 5817 5816 5815 5814 5814 5814 5814 5815 5815 5815 5816 5816 5817 5818 5819 5820 5821
5843 5842 5841 5841 5841 5840 5841 5841 5840 5840 5840 5839 5838 5837 5835 5833 5833 5832 5830 5829 5827 5825 5823 5821 5819 5817 5815 5814 5813 5811 5810 5808 5807 5806 5806 5806 5805 5805 5806 5806 5806 5807 5807 5808 5809 5810 5811 5813 5814
5841 5842 5840 5841 5841 5840 5840 5840 5839 5838 5837 5836 5834 5832 5830 5829 5827 5826 5825 5823 5822 5820 5817 5814 5812 5809 5807 5805 5803 5802 5800 5799 5798 5797 5796 5796 5795 5796 5796 5797 5797 5798 5798 5799 5800 5801 5802 5804 5806
5841 5842 5840 5841 5840 5839 5839 5839 5838 5836 5835 5833 5831 5829 5827 5826 5824 5822 5820 5818 5816 5814 5811 5808 5805 5801 5799 5797 5795 5793 5791 5790 5789 5788 5787 5786 5786 5786 5786 5787 5787 5788 5789 5790 5791 5792 5793 5795 5798
5842 5841 5841 5841 5840 5839 5838 5838 5837 5836 5834 5832 5830 5828 5826 5824 5822 5819 5816 5814 5811 5808 5805 5802 5799 5795 5792 5789 5787 5784 5783 5781 5780 5779 5778 5777 5777 5777 5777 5777 5777 5778 5779 5780 5781 5782 5784 5786 5789
5841 5840 5840 5840 5839 5838 5837 5835 5834 5832 5830 5829 5827 5826 5823 5821 5818 5814 5811 5808 5804 5801 5798 5794 5791 5788 5784 5781 5778 5775 5773 5771 5770 5769 5768 5768 5768 5767 5767 5768 5767 5768 5768 5769 5771 5773 5774 5777 5779
5841 5841 5841 5839 5838 5837 5835 5833 5831 5829 5828 5826 5824 5821 5818 5815 5812 5809 5805 5801 5797 5793 5789 5785 5782 5778 5774 5771 5768 5766 5763 5761 5759 5757 5757 5757 5757 5757 5757 5757 5758 5758 5759 5759 5761 5763 5765 5767 5769
5841 5840 5839 5837 5837 5836 5834 5833 5831 5828 5826 5824 5822 5819 5816 5812 5808 5804 5800 5795 5790 5785 5779 5775 5770 5767 5763 5759 5756 5754 5752 5749 5747 5746 5745 5744 5744 5745 5745 5745 5746 5746 5747 5749 5750 5753 5755 5757 5760
5840 5839 5838 5837 5837 5835 5834 5833 5831 5828 5826 5824 5820 5816 5813 5808 5803 5798 5793 5787 5782 5776 5771 5765 5760 5755 5751 5746 5743 5739 5737 5735 5734 5732 5731 5731 5731 5731 5732 5732 5733 5734 5735 5737 5739 5741 5743 5746 5749
5841 5840 5839 5838 5837 5836 5834 5832 5829 5827 5824 5820 5816 5812 5807 5802 5796 5790 5784 5778 5772 5765 5759 5754 5748 5743 5738 5734 5729 5725 5721 5718 5717 5716 5715 5715 5715 5715 5716 5718 5719 5719 5721 5724 5726 5728 5730 5733 5736
5843 5841 5839 5838 5837 5835 5835 5831 5827 5824 5821 5816 5811 5806 5800 5794 5787 5780 5774 5767 5761 5755 5748 5741 5735 5730 5724 5719 5715 5711 5707 5703 5701 5698 5697 5696 5697 5698 5699 5700 5703 5705 5706 5708 5711 5714 5717 5720 5722
5843 5842 5840 5838 5835 5833 5830 5827 5824 5820 5816 5811 5806 5800 5793 5785 5778 5771 5763 5755 5748 5740 5734 5727 5720 5714 5708 5703 5698 5693 5690 5687 5685 5682 5679 5678 5678 5678 5680 5682 5684 5687 5690 5693 5695 5698 5701 5705 5708
5843 5841 5839 5836 5833 5829 5826 5823 5820 5815 5810 5804 5798 5791 5783 5775 5767 5758 5749 5741 5732 5724 5716 5708 5701 5694 5689 5683 5678 5674 5670 5667 5664 5662 5660 5659 5659 5659 5660 5662 5665 5667 5671 5674 5677 5681 5684 5689 5692
5843 5840 5837 5834 5831 5827 5824 5819 5815 5809 5803 5797 5789 5781 5772 5763 5754 5744 5734 5724 5714 5705 5696 5687 5678 5670 5663 5658 5653 5649 5646 5643 5641 5639 5638 5637 5637 5638 5639 5642 5645 5647 5651 5655 5658 5661 5666 5671 5674
5842 5839 5835 5832 5829 5825 5820 5816 5811 5804 5797 5789 5780 5771 5761 5751 5740 5729 5718 5707 5696 5684 5673 5662 5651 5642 5635 5629 5624 5620 5618 5616 5615 5615 5615 5613 5613 5614 5616 5619 5623 5625 5629 5634 5637 5640 5645 5652 5656
5839 5836 5833 5829 5826 5822 5816 5810 5805 5797 5788 5779 5769 5758 5747 5736 5724 5712 5700 5687 5673 5660 5646 5633 5621 5611 5603 5597 5592 5589 5587 5586 5586 5586 5587 5588 5588 5590 5592 5596 5599 5603 5607 5612 5616 5619 5623 5630 5637
5837 5834 5830 5826 5821 5816 5811 5803 5797 5788 5779 5768 5757 5744 5732 5718 5704 5691 5677 5663 5648 5634 5622 5611 5599 5588 5577 5568 5559 5553 5549 5550 5552 5555 5558 5561 5562 5564 5567 5571 5576 5580 5585 5590 5595 5599 5603 5608 5615
5836 5831 5827 5822 5816 5811 5803 5795 5789 5779 5768 5756 5743 5729 5715 5700 5685 5670 5655 5640 5626 5613 5602 5593 5583 5572 5560 5548 5538 5530 5523 5520 5519 5521 5527 5533 5537 5540 5543 5548 5552 5556 5561 5565 5570 5575 5581 5586 5593
5833 5829 5824 5818 5811 5805 5797 5787 5779 5767 5755 5742 5728 5713 5698 5683 5667 5651 5636 5622 5610 5599 5590 5580 5571 5561 5549 5538 5527 5517 5510 5505 5502 5501 5503 5508 5513 5516 5520 5524 5529 5532 5536 5540 5544 5549 5555 5562 5569
5830 5826 5820 5813 5805 5799 5790 5779 5769 5756 5742 5728 5714 5699 5683 5666 5651 5637 5623 5611 5600 5590 5581 5571 5561 5551 5540 5529 5519 5510 5503 5497 5493 5491 5491 5493 5496 5499 5502 5505 5508 5510 5513 5515 5518 5523 5529 5536 5544
5826 5821 5814 5807 5799 5792 5782 5771 5759 5746 5731 5715 5700 5685 5668 5652 5637 5624 5611 5601 5591 5582 5572 5562 5552 5542 5532 5522 5513 5505 5498 5492 5487 5485 5484 5485 5486 5488 5490 5492 5493 5494 5495 5496 5497 5500 5505 5509 5517
5821 5815 5809 5802 5793 5784 5774 5763 5749 5735 5720 5704 5688 5671 5655 5640 5627 5614 5602 5592 5583 5574 5564 5554 5544 5534 5525 5516 5508 5500 5493 5487 5483 5479 5477 5477 5477 5478 5479 5480 5482 5482 5482 5481 5481 5481 5483 5486 5493
5817 5810 5803 5794 5784 5774 5764 5752 5738 5722 5708 5693 5676 5660 5645 5631 5618 5606 5595 5584 5575 5566 5556 5546 5537 5527 5518 5510 5502 5495 5489 5483 5479 5475 5472 5471 5470 5469 5469 5469 5469 5469 5468 5467 5465 5464 5464 5465 5470
5812 5806 5797 5787 5776 5763 5751 5744 5727 5710 5695 5679 5664 5648 5634 5623 5611 5599 5588 5577 5567 5557 5548 5538 5529 5520 5511 5503 5496 5489 5483 5478 5473 5469 5466 5463 5462 5460 5459 5458 5457 5456 5455 5453 5451 5448 5445 5446 5450
5808 5800 5791 5781 5769 5756 5742 5732 5712 5697 5682 5666 5650 5637 5625 5614 5603 5592 5581 5569 5559 5548 5538 5528 5519 5510 5502 5494 5487 5480 5474 5469 5465 5460 5457 5454 5451 5449 5447 5445 5444 5443 5442 5440 5437 5433 5429 5429 5433
Wind_Speed
9 8 9 11 14 15 16 16 16 17 18 18 18 19 21 20 20 21 22 22 23 24 23 24 24 25 26 26 26 27 27 26 25 25 24 23 23 23 22 22 22 21 20 20 20 20 21 21 21
6 7 8 9 11 13 14 14 15 16 16 15 15 16 17 18 18 18 19 20 21 23 23 23 24 26 27 28 28 29 29 29 28 27 25 25 25 25 24 25 25 24 23 23 22 23 24 25 25
6 5 5 5 6 7 8 9 12 13 11 10 9 11 13 16 17 18 19 19 20 21 22 23 25 26 28 28 29 29 30 29 29 29 27 27 27 27 27 27 28 27 26 25 26 26 27 28 28
5 4 3 3 3 3 3 5 7 7 7 8 8 8 10 12 14 16 17 19 21 22 23 24 26 27 28 29 30 30 31 30 30 30 30 30 30 30 30 30 30 29 28 28 28 29 30 31 31
6 5 4 5 5 4 4 3 2 4 6 8 9 9 10 11 12 14 16 19 22 24 25 26 27 28 29 31 31 31 32 32 32 33 32 32 33 33 33 33 32 32 31 31 30 30 31 31 32
6 6 7 6 6 5 6 6 6 6 8 10 12 14 15 15 16 17 19 21 24 26 28 29 30 31 32 33 34 34 35 35 36 36 36 36 36 36 35 35 35 34 33 33 33 32 31 31 32
6 6 6 6 6 8 10 11 12 12 13 14 16 18 20 21 22 22 24 25 27 30 32 34 35 36 36 37 37 38 39 39 39 40 40 40 40 40 39 38 37 36 36 36 35 34 33 32 32
7 7 7 7 8 10 11 12 13 14 15 16 17 19 21 24 25 26 27 28 29 30 32 34 36 37 37 38 38 38 38 39 39 39 40 41 41 41 41 41 40 39 39 39 39 38 36 35 34
6 7 8 9 10 11 12 12 12 13 14 16 18 20 22 24 26 28 29 30 30 30 31 32 34 36 37 37 38 38 38 37 37 38 38 39 40 41 42 42 42 41 41 41 41 41 40 38 37
8 9 9 10 10 11 12 12 12 13 14 16 19 22 24 26 28 30 32 33 33 34 34 35 36 37 38 39 40 40 40 40 39 39 39 39 40 40 41 42 43 43 42 41 41 41 41 40 39
9 10 11 11 10 11 11 13 14 15 16 19 21 23 25 27 28 30 32 34 35 35 36 36 37 38 40 41 43 44 44 44 44 44 43 43 42 41 42 42 43 43 42 42 42 41 41 41 40
10 10 10 10 10 10 11 11 13 15 16 18 21 23 25 27 29 30 32 34 35 36 37 38 39 40 41 42 43 45 47 48 49 49 49 48 48 47 45 45 45 44 43 43 44 44 43 43 42
9 9 8 8 9 9 9 10 12 14 16 19 22 25 28 30 32 34 35 37 38 40 41 42 43 44 45 46 46 46 46 48 50 51 52 52 52 52 51 50 49 48 47 46 45 46 47 46 45
7 7 7 8 8 9 10 12 15 17 20 23 25 27 29 31 34 37 39 41 42 44 46 48 49 51 51 51 51 51 51 51 51 52 53 54 54 54 54 54 54 53 51 50 49 48 49 50 51
7 7 8 9 10 11 12 14 17 20 22 25 27 30 32 35 38 40 43 46 48 49 51 52 54 56 56 56 56 56 56 56 56 56 57 57 57 57 56 56 56 55 54 54 53 52 51 51 51
8 9 11 12 14 15 17 18 20 23 26 29 32 35 38 41 43 46 48 51 53 55 57 58 59 60 61 61 61 61 61 61 60 60 60 61 62 62 62 61 59 59 58 56 56 56 55 54 54
8 11 13 15 17 18 20 22 24 28 32 36 40 44 47 50 52 54 56 57 57 59 60 62 63 65 66 66 66 66 65 65 64 64 64 63 63 63 64 65 64 63 62 61 59 58 57 57 57
10 11 12 14 15 18 21 25 29 34 38 43 48 51 55 58 61 63 66 67 67 66 65 65 66 67 69 70 70 69 69 68 66 67 67 67 66 66 66 66 66 66 65 64 63 62 61 60 60
13 14 14 15 17 20 25 29 34 39 44 49 53 57 61 64 67 70 72 74 75 76 75 74 72 72 73 74 75 76 76 75 74 74 74 74 74 74 74 73 71 71 70 69 67 67 66 64 63
14 15 16 18 21 25 29 34 39 45 50 55 59 63 66 69 73 76 78 80 82 84 85 85 84 81 80 80 81 82 82 82 82 80 79 80 80 80 80 79 77 76 76 75 73 71 70 68 66
14 17 20 23 26 29 34 40 46 52 57 63 66 69 72 76 80 83 85 87 88 88 89 89 89 89 89 88 88 88 87 87 87 87 86 86 86 84 84 84 83 82 81 80 78 76 75 73 70
18 20 24 28 31 34 40 48 53 59 64 67 70 74 78 82 85 87 87 87 87 86 86 85 84 84 84 84 85 86 87 87 86 86 86 87 88 88 88 89 89 88 86 85 84 82 80 78 75
21 24 28 31 35 40 46 54 59 64 68 71 75 78 81 84 85 85 84 82 80 77 75 71 67 65 65 65 65 64 63 63 63 65 67 72 75 77 80 84 87 88 88 88 87 87 84 83 81
25 29 33 36 40 46 51 58 63 67 71 75 79 80 82 83 83 80 77 73 68 63 58 55 55 55 55 53 51 47 43 41 39 38 40 44 50 56 61 67 72 76 79 82 84 86 86 85 84
28 31 35 39 44 48 54 60 66 70 75 78 80 81 81 80 76 72 68 61 55 51 50 52 53 51 49 47 45 41 38 34 30 27 27 29 32 35 39 44 48 53 59 65 71 76 80 82 84
32 33 36 40 45 50 56 61 68 73 77 79 80 79 77 72 68 64 59 54 49 48 50 51 51 49 48 46 43 40 37 33 28 24 23 23 24 26 30 33 36 39 43 49 56 63 69 74 78
34 35 38 43 49 55 59 64 70 75 78 79 78 75 69 63 60 58 54 50 48 47 50 51 51 49 47 45 42 39 36 33 29 26 24 23 22 22 24 27 29 32 35 40 45 51 58 65 71
34 38 43 48 54 59 63 68 73 76 77 78 77 70 62 56 55 54 51 49 48 48 50 53 52 50 48 45 42 39 35 33 30 27 25 24 24 25 27 28 29 31 33 35 38 43 50 57 63
36 41 45 51 56 62 67 71 74 76 77 78 74 65 56 52 52 53 53 52 51 51 53 54 53 51 48 45 43 40 37 35 32 30 29 28 28 29 30 31 32 33 34 36 38 39 43 50 56
38 44 49 54 59 63 67 72 75 77 77 76 70 61 53 51 53 55 56 56 55 55 56 56 55 52 50 47 45 43 41 39 37 35 34 33 33 33 34 35 35 35 35 36 37 39 39 40 44
Wind_Direction
277 279 277 269 258 250 245 238 234 235 235 238 243 248 253 257 256 254 249 249 248 249 251 254 256 258 261 264 268 271 274 275 276 277 279 281 281 278 273 266 259 254 252 252 252 253 253 252 252
318 309 294 280 265 261 254 248 242 248 253 255 258 261 263 265 265 263 260 258 255 255 258 262 265 266 267 268 270 272 274 274 275 275 276 278 278 275 270 264 257 252 250 250 252 256 257 256 255
343 327 317 315 303 289 281 266 268 267 263 257 254 257 259 262 265 267 266 266 266 265 267 268 268 268 268 269 269 271 273 274 275 275 275 275 275 273 269 263 257 252 249 249 251 255 257 257 257
355 352 351 352 34 12 322 305 297 279 266 262 254 253 262 274 282 286 284 280 278 275 273 272 271 271 271 270 270 271 272 272 272 272 272 271 270 268 266 262 258 256 254 252 252 253 256 256 256
8 5 19 42 44 21 11 345 304 269 274 286 288 284 280 283 283 284 284 283 283 282 281 279 278 277 276 276 276 275 273 273 272 271 270 269 267 265 263 261 260 260 260 258 256 254 254 254 254
20 12 15 24 9 348 331 324 317 311 308 307 304 302 297 291 286 282 281 280 280 280 279 278 278 277 276 275 275 275 275 274 273 272 271 268 266 264 262 260 260 260 260 260 259 256 253 252 251
7 359 358 350 338 326 323 324 324 322 313 307 305 301 298 293 289 285 281 279 278 278 278 278 277 276 275 274 273 272 271 271 270 269 268 266 265 263 261 260 259 258 257 256 256 255 253 251 249
356 348 340 334 331 322 319 320 318 315 309 306 302 299 297 296 296 294 293 292 290 287 285 284 285 284 282 279 276 273 272 271 270 268 266 264 263 262 260 259 257 255 253 252 251 251 250 250 248
11 1 356 354 349 339 337 334 327 321 313 309 306 303 302 301 302 301 300 299 297 294 291 289 287 287 286 284 281 277 273 270 269 268 267 266 264 263 261 259 259 257 254 251 249 248 248 247 246
28 18 11 10 4 353 345 339 333 324 316 311 308 306 306 305 305 305 304 303 301 298 294 290 286 284 283 282 281 279 276 273 270 268 267 267 266 265 263 261 260 259 256 252 249 248 247 246 245
19 12 10 9 2 354 346 341 339 335 330 325 321 318 314 311 310 309 308 306 304 301 298 294 290 286 282 280 279 278 277 276 274 272 270 269 267 266 266 264 262 260 257 253 250 248 246 244 243
7 5 6 2 2 0 357 349 343 339 334 329 325 321 317 315 312 309 306 304 301 299 296 294 291 288 285 281 278 276 274 274 273 272 271 270 268 267 266 265 264 262 259 256 253 251 247 244 242
7 11 14 17 26 23 9 351 337 329 325 322 320 319 317 314 311 307 304 302 299 296 293 289 286 284 283 281 278 275 273 272 272 271 270 269 267 266 265 264 263 261 258 256 254 253 251 248 246
27 31 34 30 25 14 358 341 332 328 325 323 322 320 316 313 309 307 304 302 299 296 292 289 286 284 282 279 277 274 272 269 268 268 268 267 267 266 264 263 262 261 259 257 254 252 252 252 249
43 31 23 15 5 357 345 334 332 333 329 326 324 321 317 314 310 307 304 301 298 295 291 288 286 284 281 279 277 274 272 270 268 266 265 265 264 263 262 261 259 258 257 257 256 254 252 250 249
29 12 1 356 351 346 343 341 340 337 333 329 325 321 317 313 308 305 302 300 297 294 291 289 286 284 282 280 278 276 273 271 269 267 265 264 263 262 261 259 258 257 255 254 254 254 253 251 249
8 356 351 348 345 344 342 340 338 335 331 327 324 320 317 314 311 308 305 301 297 294 290 288 286 283 281 279 279 277 274 272 270 268 266 264 262 261 261 261 260 258 257 254 252 251 251 251 250
347 342 342 340 337 337 336 337 335 332 328 324 321 317 315 313 311 309 307 305 302 298 294 289 285 282 278 276 275 274 273 272 270 268 266 264 263 261 260 259 259 258 257 256 254 251 250 250 249
330 329 330 331 331 331 331 330 329 324 320 318 316 313 311 309 308 306 305 303 301 300 298 294 289 283 279 274 271 269 267 267 267 267 266 265 264 263 262 261 259 258 257 256 255 253 252 251 251
322 322 323 325 326 325 322 321 321 319 318 317 315 313 311 310 308 306 304 302 300 298 296 293 289 285 280 275 271 268 265 262 261 261 263 264 264 263 263 261 259 256 256 256 256 255 253 251 251
329 326 322 320 318 318 317 317 318 318 318 317 316 314 313 310 308 308 307 305 302 298 296 294 293 292 290 286 281 274 270 267 265 263 261 259 259 259 260 260 258 257 256 256 257 258 257 253 250
328 323 319 316 316 317 317 316 317 319 318 318 316 316 315 314 313 312 310 306 303 300 299 300 301 301 300 298 295 291 286 280 274 269 265 262 261 259 258 258 258 259 258 257 256 256 256 255 254
322 320 317 315 314 315 316 317 318 318 318 318 318 319 318 318 317 314 311 309 307 307 308 309 310 310 310 308 305 302 297 291 285 278 272 267 264 263 262 261 260 260 260 259 257 255 254 254 253
322 321 319 316 315 317 319 320 319 319 320 320 320 321 321 321 318 316 314 313 313 314 316 317 318 319 319 318 316 313 308 302 293 281 272 267 264 262 261 261 260 260 260 260 258 256 253 251 250
325 323 320 319 321 322 321 320 320 321 321 322 322 323 324 322 320 319 318 319 319 320 320 321 322 324 325 324 323 321 317 312 301 287 273 264 259 258 258 259 259 259 258 257 256 255 253 251 249
323 324 326 326 324 321 320 321 322 322 323 323 324 326 325 323 324 324 324 323 323 323 324 325 326 327 328 327 327 324 322 318 311 299 285 272 265 262 262 262 263 264 263 261 258 254 251 249 246
326 329 330 327 324 323 323 323 322 323 324 325 327 328 326 327 329 329 327 324 323 324 326 328 328 329 329 328 328 326 323 319 313 304 294 285 280 276 272 269 268 269 271 270 267 262 256 250 246
332 333 332 329 325 324 325 325 325 325 327 328 329 329 328 331 333 332 328 324 323 323 324 326 328 327 326 326 325 324 323 319 314 305 295 288 284 283 281 280 279 278 280 281 278 272 261 254 248
335 334 332 329 327 326 326 326 326 327 330 331 331 330 329 332 335 335 332 327 323 322 322 323 323 323 321 320 319 318 316 313 310 305 297 289 283 281 281 282 281 282 284 285 284 285 272 257 248
335 334 334 332 330 328 327 328 328 330 332 331 331 329 329 332 335 336 334 330 326 322 321 320 319 318 317 315 313 311 309 306 303 299 295 291 286 282 281 281 281 282 284 286 286 286 280 261 245